Terminal Aerodrome Forecast
Issued by NWS Indianapolis, IN

Home | Current Version | Previous Version | Text Only | Print | Product List | Glossary On
Versions: 1 2 3 4 5 6 7 8 9 10 11 12 13 14 15 16 17 18 19 20 21 22 23 24 25 26 27 28 29
000
FTUS43 KIND 021400 AAA
TAFIND
TAF AMD
KIND 021413Z 0214/0318 25006KT P6SM BKN007
     FM021500 23007KT P6SM VCSH BKN040
     FM021900 24009KT P6SM BKN035
     FM030000 27004KT P6SM SCT035
     FM030700 VRB02KT 3SM BR SCT006
     FM031300 18004KT P6SM SKC=

USA.gov is the U.S. government's official web portal to all federal, state and local government web resources and services.